When you browse on this site, cookies collect data to enhance your experience and personalize the content and advertising you see.
Visit our Privacy Policy to learn more. By continuing to use the site, you agree to this use of cookies and data.

Hourly Weather Algiers

Today, 20 September, Sunday

Time Temperature Precipitation Wind Pressure Humidity
00:00 +25°C° 0.2 mm 2 mps 750 mmHg 70%
01:00 +25°C° 0 mm 2 mps 750 mmHg 71%
02:00 +25°C° 0 mm 2 mps 750 mmHg 72%
03:00 +25°C° 0 mm 2 mps 750 mmHg 73%
04:00 +24°C° 0 mm 2 mps 750 mmHg 74%
05:00 +24°C° 0 mm 2 mps 750 mmHg 76%
06:00 +24°C° 0 mm 2 mps 750 mmHg 77%
07:00 +25°C° 0 mm 2 mps 750 mmHg 72%
08:00 +26°C° 0 mm 2 mps 750 mmHg 67%
09:00 +27°C° 0 mm 2 mps 751 mmHg 61%
10:00 +28°C° 0 mm 3 mps 750 mmHg 60%
11:00 +28°C° 0 mm 3 mps 750 mmHg 58%
12:00 +29°C° 0 mm 4 mps 750 mmHg 56%
13:00 +29°C° 0 mm 4 mps 750 mmHg 59%
14:00 +28°C° 0 mm 4 mps 749 mmHg 61%
15:00 +28°C° 0 mm 3 mps 749 mmHg 64%
16:00 +27°C° 0 mm 3 mps 749 mmHg 67%
17:00 +26°C° 0 mm 2 mps 749 mmHg 70%
18:00 +26°C° 0 mm 2 mps 749 mmHg 73%
19:00 +25°C° 0 mm 1 mps 749 mmHg 73%
20:00 +25°C° 0 mm 1 mps 750 mmHg 74%
21:00 +25°C° 0 mm 1 mps 750 mmHg 74%
22:00 +25°C° 0 mm 1 mps 750 mmHg 75%
23:00 +25°C° 0 mm 1 mps 750 mmHg 75%

Tomorrow, 21 September, Monday

Time Temperature Precipitation Wind Pressure Humidity
00:00 +25°C° 0 mm 1 mps 749 mmHg 75%
01:00 +25°C° 0 mm 1 mps 749 mmHg 76%
02:00 +24°C° 0 mm 1 mps 749 mmHg 76%
03:00 +24°C° 0 mm 2 mps 749 mmHg 77%
04:00 +24°C° 0 mm 2 mps 749 mmHg 77%
05:00 +24°C° 0 mm 2 mps 749 mmHg 77%
06:00 +24°C° 0 mm 2 mps 749 mmHg 78%
07:00 +25°C° 0 mm 2 mps 749 mmHg 72%
08:00 +26°C° 0 mm 2 mps 749 mmHg 65%
09:00 +27°C° 0 mm 2 mps 750 mmHg 59%
10:00 +27°C° 0 mm 2 mps 750 mmHg 56%
11:00 +28°C° 0 mm 2 mps 749 mmHg 53%
12:00 +29°C° 0 mm 3 mps 749 mmHg 49%
13:00 +28°C° 0 mm 2 mps 749 mmHg 50%
14:00 +28°C° 0 mm 2 mps 749 mmHg 51%
15:00 +28°C° 0 mm 2 mps 749 mmHg 51%
16:00 +27°C° 0 mm 2 mps 748 mmHg 53%
17:00 +27°C° 0 mm 1 mps 748 mmHg 55%
18:00 +26°C° 0 mm 1 mps 748 mmHg 57%
19:00 +24°C° 0 mm 0 mps 749 mmHg 58%
20:00 +23°C° 0 mm 0 mps 749 mmHg 60%
21:00 +23°C° 0 mm 0 mps 749 mmHg 61%
22:00 +23°C° 0 mm 0 mps 749 mmHg 61%
23:00 +23°C° 0 mm 0 mps 749 mmHg 61%

Day after tomorrow, 22 September, Tuesday

Time Temperature Precipitation Wind Pressure Humidity
00:00 +23°C° 0 mm 0 mps 748 mmHg 61%
01:00 +22°C° 0 mm 0 mps 748 mmHg 62%
02:00 +22°C° 0 mm 0 mps 748 mmHg 62%
03:00 +22°C° 0 mm 0 mps 747 mmHg 63%
04:00 +22°C° 0 mm 0 mps 747 mmHg 62%
05:00 +22°C° 0 mm 0 mps 748 mmHg 60%
06:00 +22°C° 0 mm 0 mps 748 mmHg 59%
07:00 +23°C° 0 mm 0 mps 748 mmHg 56%
08:00 +24°C° 0 mm 0 mps 748 mmHg 52%
09:00 +27°C° 0 mm 1 mps 748 mmHg 48%
10:00 +28°C° 0 mm 1 mps 748 mmHg 46%
11:00 +28°C° 0 mm 1 mps 748 mmHg 44%
12:00 +29°C° 0 mm 1 mps 747 mmHg 42%
13:00 +29°C° 0 mm 1 mps 747 mmHg 42%
14:00 +29°C° 0 mm 2 mps 747 mmHg 43%
15:00 +28°C° 0 mm 2 mps 746 mmHg 44%
16:00 +28°C° 0 mm 2 mps 746 mmHg 46%
17:00 +27°C° 0 mm 1 mps 746 mmHg 49%
18:00 +26°C° 0 mm 1 mps 747 mmHg 51%
19:00 +26°C° 0 mm 1 mps 747 mmHg 51%
20:00 +26°C° 0 mm 1 mps 747 mmHg 52%
21:00 +26°C° 0 mm 1 mps 747 mmHg 53%
22:00 +26°C° 0 mm 1 mps 747 mmHg 52%
23:00 +24°C° 0 mm 0 mps 747 mmHg 52%

23 September, Wednesday

Time Temperature Precipitation Wind Pressure Humidity
00:00 +24°C° 0 mm 0 mps 747 mmHg 52%
01:00 +24°C° 0 mm 0 mps 746 mmHg 52%
02:00 +24°C° 0 mm 0 mps 746 mmHg 52%
03:00 +23°C° 0 mm 0 mps 746 mmHg 51%
04:00 +25°C° 0 mm 1 mps 746 mmHg 50%
05:00 +25°C° 0 mm 1 mps 747 mmHg 49%
06:00 +25°C° 0 mm 1 mps 747 mmHg 48%
07:00 +27°C° 0 mm 1 mps 747 mmHg 46%
08:00 +28°C° 0 mm 1 mps 747 mmHg 43%
09:00 +27°C° 0 mm 0 mps 747 mmHg 40%
10:00 +30°C° 0 mm 1 mps 747 mmHg 38%
11:00 +31°C° 0 mm 2 mps 747 mmHg 35%
12:00 +31°C° 0 mm 2 mps 747 mmHg 32%
13:00 +31°C° 0 mm 2 mps 747 mmHg 34%
14:00 +31°C° 0 mm 2 mps 746 mmHg 37%
15:00 +30°C° 0 mm 2 mps 746 mmHg 39%
16:00 +29°C° 0 mm 2 mps 746 mmHg 43%
17:00 +28°C° 0 mm 1 mps 746 mmHg 46%
18:00 +27°C° 0 mm 1 mps 746 mmHg 50%
19:00 +27°C° 0 mm 1 mps 747 mmHg 50%
20:00 +27°C° 0 mm 1 mps 747 mmHg 49%
21:00 +27°C° 0 mm 1 mps 747 mmHg 49%
22:00 +27°C° 0 mm 1 mps 747 mmHg 48%
23:00 +27°C° 0 mm 1 mps 747 mmHg 47%

24 September, Thursday

Time Temperature Precipitation Wind Pressure Humidity
00:00 +27°C° 0 mm 1 mps 747 mmHg 47%
01:00 +27°C° 0 mm 1 mps 747 mmHg 46%
02:00 +27°C° 0 mm 1 mps 746 mmHg 46%
03:00 +27°C° 0 mm 1 mps 746 mmHg 46%
04:00 +27°C° 0 mm 1 mps 746 mmHg 47%
05:00 +27°C° 0 mm 1 mps 746 mmHg 48%
06:00 +27°C° 0 mm 1 mps 746 mmHg 49%
07:00 +28°C° 0 mm 1 mps 747 mmHg 45%
08:00 +29°C° 0 mm 2 mps 747 mmHg 42%
09:00 +30°C° 0 mm 2 mps 747 mmHg 38%
10:00 +30°C° 0 mm 3 mps 747 mmHg 39%
11:00 +31°C° 0 mm 3 mps 747 mmHg 40%
12:00 +32°C° 0 mm 4 mps 747 mmHg 41%
13:00 +32°C° 0 mm 4 mps 747 mmHg 39%
14:00 +31°C° 0 mm 3 mps 747 mmHg 38%
15:00 +31°C° 0 mm 3 mps 746 mmHg 37%
16:00 +31°C° 0 mm 3 mps 747 mmHg 38%
17:00 +30°C° 0 mm 2 mps 747 mmHg 40%
18:00 +29°C° 0 mm 1 mps 747 mmHg 42%
19:00 +29°C° 0 mm 1 mps 747 mmHg 43%
20:00 +29°C° 0 mm 1 mps 748 mmHg 43%
21:00 +28°C° 0 mm 1 mps 748 mmHg 44%
22:00 +28°C° 0 mm 2 mps 748 mmHg 42%
23:00 +29°C° 0 mm 2 mps 747 mmHg 41%

25 September, Friday

Time Temperature Precipitation Wind Pressure Humidity
00:00 +29°C° 0 mm 3 mps 747 mmHg 39%
01:00 +28°C° 0 mm 5 mps 747 mmHg 42%
02:00 +28°C° 0 mm 6 mps 747 mmHg 45%
03:00 +27°C° 0 mm 8 mps 747 mmHg 48%
04:00 +27°C° 0 mm 8 mps 747 mmHg 51%
05:00 +26°C° 0 mm 8 mps 747 mmHg 55%
06:00 +26°C° 0 mm 8 mps 748 mmHg 58%
07:00 +26°C° 0 mm 8 mps 748 mmHg 58%
08:00 +27°C° 0 mm 7 mps 749 mmHg 58%
09:00 +27°C° 0 mm 7 mps 749 mmHg 58%
10:00 +27°C° 0 mm 7 mps 749 mmHg 57%
11:00 +27°C° 0 mm 6 mps 750 mmHg 56%
12:00 +27°C° 0 mm 6 mps 750 mmHg 55%
13:00 +26°C° 0 mm 5 mps 750 mmHg 58%
14:00 +25°C° 0 mm 5 mps 750 mmHg 61%
15:00 +23°C° 0 mm 4 mps 750 mmHg 64%
16:00 +22°C° 0 mm 4 mps 750 mmHg 64%
17:00 +22°C° 0 mm 4 mps 751 mmHg 64%
18:00 +21°C° 0 mm 4 mps 751 mmHg 64%
19:00 +21°C° 0 mm 3 mps 751 mmHg 62%
20:00 +21°C° 0 mm 3 mps 752 mmHg 61%
21:00 +21°C° 0 mm 2 mps 752 mmHg 59%
22:00 +20°C° 0 mm 2 mps 752 mmHg 58%
23:00 +20°C° 0 mm 2 mps 752 mmHg 58%
Show more